| time (UTC) | temp C | wind direction | speed KPH | gust KPH | rain 1hr cm | rain 24hr cm | rain mn cm | humidity % | barometer mb |
| 20260505041606 | 8 | 315 | 0.0 | 6.4 | 0.00 | 0.00 | 0.00 | 62 | 1007.4 |
| 20260505041055 | 8 | 270 | 1.6 | 9.7 | 0.00 | 0.00 | 0.00 | 61 | 1007.3 |
| 20260505040545 | 9 | 248 | 3.2 | 9.7 | 0.00 | 0.00 | 0.00 | 61 | 1007.6 |
| 20260505040031 | 9 | 0 | 0.0 | 6.4 | 0.00 | 0.00 | 0.00 | 61 | 1007.4 |
| 20260505035756 | 9 | 315 | 3.2 | 9.7 | 0.00 | 0.00 | 0.00 | 61 | 1007.7 |
| 20260505035014 | 9 | 270 | 3.2 | 9.7 | 0.00 | 0.00 | 0.00 | 61 | 1007.5 |
| 20260505034505 | 9 | 315 | 0.0 | 8.0 | 0.00 | 0.00 | 0.00 | 61 | 1007.0 |
| 20260505033716 | 10 | 270 | 0.0 | 6.4 | 0.00 | 0.00 | 0.00 | 58 | 1007.4 |
| 20260505032934 | 10 | 315 | 0.0 | 6.4 | 0.00 | 0.00 | 0.00 | 57 | 1007.4 |
| 20260505032425 | 10 | 248 | 0.0 | 6.4 | 0.00 | 0.00 | 0.00 | 59 | 1007.3 |
| 20260505032145 | 10 | 270 | 0.0 | 9.7 | 0.00 | 0.00 | 0.00 | 60 | 1007.4 |
| 20260505031404 | 9 | 270 | 6.4 | 9.7 | 0.00 | 0.00 | 0.00 | 61 | 1007.4 |
| 20260505031124 | 9 | 315 | 0.0 | 6.4 | 0.00 | 0.00 | 0.00 | 61 | 1007.2 |
| 20260505030344 | 10 | 270 | 4.8 | 6.4 | 0.00 | 0.00 | 0.00 | 60 | 1007.3 |
| 20260505030104 | 10 | 270 | 0.0 | 8.0 | 0.00 | 0.00 | 0.00 | 60 | 1007.0 |
| 20260505025555 | 10 | 315 | 0.0 | 8.0 | 0.00 | 0.00 | 0.00 | 60 | 1007.3 |
| 20260505024813 | 10 | 315 | 0.0 | 6.4 | 0.00 | 0.00 | 0.00 | 58 | 1006.9 |
| 20260505024302 | 10 | 225 | 0.0 | 8.0 | 0.00 | 0.00 | 0.00 | 59 | 1006.9 |
| 20260505023753 | 10 | 315 | 0.0 | 8.0 | 0.00 | 0.00 | 0.00 | 57 | 1007.0 |
| 20260505023243 | 10 | 225 | 0.0 | 8.0 | 0.00 | 0.00 | 0.00 | 57 | 1006.7 |
| 20260505022732 | 10 | 225 | 0.0 | 8.0 | 0.00 | 0.00 | 0.00 | 57 | 1006.9 |
| 20260505022222 | 10 | 225 | 6.4 | 8.0 | 0.00 | 0.00 | 0.00 | 58 | 1006.7 |
| 20260505021712 | 10 | 0 | 0.0 | 6.4 | 0.00 | 0.00 | 0.00 | 59 | 1006.9 |
| 20260505021202 | 10 | 225 | 0.0 | 6.4 | 0.00 | 0.00 | 0.00 | 59 | 1006.1 |
| 20260505020651 | 10 | 315 | 6.4 | 6.4 | 0.00 | 0.00 | 0.00 | 58 | 1006.7 |
| 20260505020141 | 10 | 270 | 0.0 | 6.4 | 0.00 | 0.00 | 0.00 | 58 | 1006.6 |
| 20260505015632 | 10 | 293 | 1.6 | 8.0 | 0.00 | 0.00 | 0.00 | 58 | 1006.7 |
| 20260505014611 | 10 | 225 | 0.0 | 3.2 | 0.00 | 0.00 | 0.00 | 58 | 1006.3 |
| 20260505014101 | 10 | 0 | 0.0 | 11.3 | 0.00 | 0.00 | 0.00 | 60 | 1006.5 |
| 20260505013822 | 10 | 315 | 0.0 | 11.3 | 0.00 | 0.00 | 0.00 | 59 | 1006.6 |
| 20260505013040 | 10 | 0 | 0.0 | 8.0 | 0.00 | 0.00 | 0.00 | 60 | 1006.0 |
| 20260505012531 | 9 | 270 | 0.0 | 8.0 | 0.00 | 0.00 | 0.00 | 61 | 1006.1 |
| 20260505012251 | 9 | 248 | 3.2 | 8.0 | 0.00 | 0.00 | 0.00 | 60 | 1006.1 |
| 20260505011511 | 10 | 0 | 0.0 | 6.4 | 0.00 | 0.00 | 0.00 | 57 | 1006.1 |
| 20260505011000 | 10 | 315 | 0.0 | 6.4 | 0.00 | 0.00 | 0.00 | 57 | 1006.1 |
| 20260505010450 | 10 | 0 | 0.0 | 6.4 | 0.00 | 0.00 | 0.00 | 56 | 1006.0 |
| 20260505005939 | 10 | 270 | 3.2 | 6.4 | 0.00 | 0.00 | 0.00 | 56 | 1005.9 |
| 20260505005430 | 10 | 0 | 0.0 | 11.3 | 0.00 | 0.00 | 0.00 | 55 | 1006.0 |
| 20260505004919 | 10 | 315 | 1.6 | 11.3 | 0.00 | 0.00 | 0.00 | 56 | 1006.1 |
| 20260505004129 | 10 | 270 | 0.0 | 6.4 | 0.00 | 0.00 | 0.00 | 55 | 1005.6 |
| 20260505003620 | 10 | 270 | 0.0 | 6.4 | 0.00 | 0.00 | 0.00 | 55 | 1005.7 |
| 20260505002839 | 10 | 315 | 0.0 | 4.8 | 0.00 | 0.00 | 0.00 | 54 | 1005.7 |
| 20260505002558 | 11 | 225 | 0.0 | 9.7 | 0.00 | 0.00 | 0.00 | 53 | 1005.7 |
| 20260505001818 | 10 | 270 | 0.0 | 9.7 | 0.00 | 0.00 | 0.00 | 54 | 1005.7 |
| 20260505001309 | 10 | 203 | 3.2 | 8.0 | 0.00 | 0.00 | 0.00 | 54 | 1005.7 |
| 20260505000758 | 10 | 225 | 0.0 | 12.9 | 0.00 | 0.00 | 0.00 | 54 | 1005.1 |
| 20260504235739 | 10 | 225 | 3.2 | 6.4 | 0.00 | 0.00 | 0.00 | 52 | 1004.7 |
| 20260504235228 | 11 | 270 | 1.6 | 4.8 | 0.00 | 0.00 | 0.00 | 51 | 1004.9 |
| 20260504234718 | 11 | 180 | 0.0 | 4.8 | 0.00 | 0.00 | 0.00 | 51 | 1004.4 |
| 20260504234209 | 11 | 225 | 0.0 | 3.2 | 0.00 | 0.00 | 0.00 | 51 | 1004.6 |
| 20260504233657 | 11 | 225 | 0.0 | 8.0 | 0.00 | 0.00 | 0.00 | 51 | 1004.6 |
| 20260504233147 | 11 | 225 | 0.0 | 8.0 | 0.00 | 0.00 | 0.00 | 51 | 1004.6 |
| 20260504232638 | 11 | 270 | 1.6 | 4.8 | 0.00 | 0.00 | 0.00 | 50 | 1004.2 |
| 20260504232127 | 11 | 225 | 0.0 | 1.6 | 0.00 | 0.00 | 0.00 | 50 | 1004.1 |
| 20260504231617 | 11 | 225 | 0.0 | 6.4 | 0.00 | 0.00 | 0.00 | 50 | 1003.9 |
| 20260504231106 | 11 | 315 | 3.2 | 6.4 | 0.00 | 0.00 | 0.00 | 50 | 1003.6 |
| 20260504230556 | 11 | 225 | 0.0 | 1.6 | 0.00 | 0.00 | 0.00 | 49 | 1003.4 |
| 20260504230047 | 11 | 270 | 0.0 | 9.7 | 0.00 | 0.00 | 0.00 | 49 | 1003.8 |
| 20260504225536 | 12 | 0 | 0.0 | 9.7 | 0.00 | 0.00 | 0.00 | 48 | 1003.5 |
| 20260504225026 | 12 | 225 | 3.2 | 8.0 | 0.00 | 0.00 | 0.00 | 48 | 1004.1 |
| 20260504224516 | 12 | 225 | 0.0 | 1.6 | 0.00 | 0.00 | 0.00 | 46 | 1003.3 |
| 20260504224006 | 12 | 270 | 0.0 | 0.0 | 0.00 | 0.00 | 0.00 | 44 | 1003.5 |
| 20260504223455 | 12 | 270 | 0.0 | 0.0 | 0.00 | 0.00 | 0.00 | 43 | 1003.3 |
| 20260504222945 | 13 | 315 | 0.0 | 1.6 | 0.00 | 0.00 | 0.00 | 43 | 1003.3 |
| 20260504222705 | 13 | 315 | 0.0 | 1.6 | 0.00 | 0.00 | 0.00 | 42 | 1003.0 |
| 20260504221925 | 13 | 315 | 0.0 | 0.0 | 0.00 | 0.00 | 0.00 | 39 | 1003.2 |
| 20260504221415 | 15 | 0 | 0.0 | 0.0 | 0.00 | 0.00 | 0.00 | 38 | 1003.0 |
| 20260504220904 | 15 | 270 | 0.0 | 1.6 | 0.00 | 0.00 | 0.00 | 37 | 1003.0 |
| 20260504220355 | 15 | 315 | 0.0 | 1.6 | 0.00 | 0.00 | 0.00 | 37 | 1002.8 |
| 20260504215844 | 15 | 315 | 0.0 | 1.6 | 0.00 | 0.00 | 0.00 | 37 | 1002.7 |
| 20260504215334 | 15 | 0 | 0.0 | 1.6 | 0.00 | 0.00 | 0.00 | 35 | 1002.6 |
| 20260504214825 | 16 | 270 | 0.0 | 1.6 | 0.00 | 0.00 | 0.00 | 33 | 1002.5 |
| 20260504214314 | 16 | 0 | 0.0 | 1.6 | 0.00 | 0.00 | 0.00 | 32 | 1002.5 |
| 20260504213804 | 17 | 0 | 0.0 | 1.6 | 0.00 | 0.00 | 0.00 | 30 | 1002.5 |
| 20260504213254 | 17 | 0 | 0.0 | 1.6 | 0.00 | 0.00 | 0.00 | 30 | 1002.1 |
| 20260504212744 | 18 | 0 | 0.0 | 1.6 | 0.00 | 0.00 | 0.00 | 32 | 1002.5 |
| 20260504212504 | 18 | 0 | 0.0 | 3.2 | 0.00 | 0.00 | 0.00 | 29 | 1002.5 |
| 20260504211723 | 20 | 45 | 0.0 | 3.2 | 0.00 | 0.00 | 0.00 | 25 | 1002.2 |
| 20260504211213 | 21 | 90 | 0.0 | 9.7 | 0.00 | 0.00 | 0.00 | 22 | 1002.4 |
| 20260504210703 | 22 | 45 | 0.0 | 9.7 | 0.00 | 0.00 | 0.00 | 20 | 1002.2 |
| 20260504210424 | 23 | 45 | 0.0 | 4.8 | 0.00 | 0.00 | 0.00 | 22 | 1002.4 |
| 20260504205913 | 23 | 68 | 1.6 | 6.4 | 0.00 | 0.00 | 0.00 | 21 | 1002.3 |
| 20260504204622 | 24 | 135 | 1.6 | 3.2 | 0.00 | 0.00 | 0.00 | 14 | 1002.1 |
| 20260504204112 | 24 | 90 | 0.0 | 3.2 | 0.00 | 0.00 | 0.00 | 14 | 1002.4 |
| 20260504203602 | 25 | 68 | 0.0 | 3.2 | 0.00 | 0.00 | 0.00 | 14 | 1002.1 |
| 20260504203052 | 25 | 68 | 0.0 | 3.2 | 0.00 | 0.00 | 0.00 | 13 | 1002.3 |
| 20260504202541 | 25 | 45 | 0.0 | 3.2 | 0.00 | 0.00 | 0.00 | 14 | 1002.2 |
| 20260504202031 | 25 | 45 | 0.0 | 8.0 | 0.00 | 0.00 | 0.00 | 13 | 1002.5 |
| 20260504201519 | 25 | 45 | 0.0 | 8.0 | 0.00 | 0.00 | 0.00 | 14 | 1002.5 |
| 20260504201009 | 25 | 45 | 0.0 | 6.4 | 0.00 | 0.00 | 0.00 | 13 | 1002.2 |
| 20260504200458 | 25 | 90 | 0.0 | 6.4 | 0.00 | 0.00 | 0.00 | 13 | 1002.2 |
| 20260504195951 | 25 | 45 | 0.0 | 3.2 | 0.00 | 0.00 | 0.00 | 13 | 1002.6 |
| 20260504195438 | 25 | 315 | 0.0 | 6.4 | 0.00 | 0.00 | 0.00 | 12 | 1002.2 |
| 20260504194418 | 26 | 135 | 3.2 | 8.0 | 0.00 | 0.00 | 0.00 | 12 | 1002.6 |
| 20260504194138 | 25 | 45 | 0.0 | 8.0 | 0.00 | 0.00 | 0.00 | 12 | 1002.6 |
| 20260504193357 | 25 | 158 | 0.0 | 11.3 | 0.00 | 0.00 | 0.00 | 12 | 1002.2 |
| 20260504192608 | 25 | 90 | 1.6 | 8.0 | 0.00 | 0.00 | 0.00 | 12 | 1002.6 |
| 20260504191826 | 25 | 90 | 0.0 | 14.5 | 0.00 | 0.00 | 0.00 | 12 | 1002.6 |
| 20260504191316 | 26 | 90 | 0.0 | 14.5 | 0.00 | 0.00 | 0.00 | 12 | 1002.5 |
| 20260504190806 | 26 | 90 | 0.0 | 6.4 | 0.00 | 0.00 | 0.00 | 12 | 1002.8 |
| 20260504190256 | 26 | 45 | 0.0 | 3.2 | 0.00 | 0.00 | 0.00 | 10 | 1002.8 |
| 20260504190017 | 26 | 23 | 0.0 | 6.4 | 0.00 | 0.00 | 0.00 | 12 | 1002.6 |
| 20260504185236 | 25 | 135 | 0.0 | 6.4 | 0.00 | 0.00 | 0.00 | 11 | 1002.8 |
| 20260504184726 | 26 | 45 | 0.0 | 8.0 | 0.00 | 0.00 | 0.00 | 11 | 1002.8 |
| 20260504184216 | 25 | 90 | 0.0 | 8.0 | 0.00 | 0.00 | 0.00 | 12 | 1003.0 |
| 20260504183937 | 25 | 90 | 0.0 | 14.5 | 0.00 | 0.00 | 0.00 | 11 | 1003.0 |
| 20260504183155 | 25 | 113 | 0.0 | 14.5 | 0.00 | 0.00 | 0.00 | 12 | 1002.8 |
| 20260504182646 | 26 | 135 | 0.0 | 9.7 | 0.00 | 0.00 | 0.00 | 11 | 1003.2 |
| 20260504182406 | 25 | 180 | 4.8 | 9.7 | 0.00 | 0.00 | 0.00 | 11 | 1003.2 |
| 20260504181625 | 26 | 225 | 0.0 | 9.7 | 0.00 | 0.00 | 0.00 | 11 | 1003.5 |
| 20260504181115 | 25 | 90 | 0.0 | 9.7 | 0.00 | 0.00 | 0.00 | 12 | 1003.8 |
| 20260504180604 | 25 | 45 | 1.6 | 8.0 | 0.00 | 0.00 | 0.00 | 11 | 1003.8 |
| 20260504180055 | 25 | 90 | 0.0 | 3.2 | 0.00 | 0.00 | 0.00 | 12 | 1003.8 |
| 20260504175545 | 25 | 45 | 0.0 | 6.4 | 0.00 | 0.00 | 0.00 | 12 | 1004.1 |
| 20260504175034 | 25 | 90 | 0.0 | 6.4 | 0.00 | 0.00 | 0.00 | 13 | 1004.3 |
| 20260504174525 | 25 | 90 | 0.0 | 9.7 | 0.00 | 0.00 | 0.00 | 11 | 1004.3 |
| 20260504174013 | 25 | 90 | 0.0 | 9.7 | 0.00 | 0.00 | 0.00 | 14 | 1004.6 |
| 20260504173505 | 25 | 180 | 0.0 | 9.7 | 0.00 | 0.00 | 0.00 | 11 | 1004.6 |
| 20260504172954 | 26 | 135 | 0.0 | 3.2 | 0.00 | 0.00 | 0.00 | 11 | 1005.0 |
| 20260504172714 | 26 | 90 | 0.0 | 9.7 | 0.00 | 0.00 | 0.00 | 11 | 1005.2 |
| 20260504171937 | 25 | 180 | 0.0 | 9.7 | 0.00 | 0.00 | 0.00 | 11 | 1005.7 |
| 20260504171657 | 25 | 0 | 0.0 | 8.0 | 0.00 | 0.00 | 0.00 | 11 | 1005.6 |
| 20260504170917 | 25 | 90 | 4.8 | 8.0 | 0.00 | 0.00 | 0.00 | 10 | 1005.8 |
| 20260504170405 | 25 | 0 | 0.0 | 4.8 | 0.00 | 0.00 | 0.00 | 10 | 1006.1 |
| 20260504160204 | 23 | 0 | 0.0 | 6.4 | 0.00 | 0.00 | 0.00 | 14 | 1009.0 |
| 20260504151022 | 23 | 135 | 0.0 | 3.2 | 0.00 | 0.00 | 0.00 | 15 | 1010.3 |
| 20260504150513 | 22 | 0 | 0.0 | 6.4 | 0.00 | 0.00 | 0.00 | 15 | 1010.2 |
| 20260504141332 | 21 | 0 | 0.0 | 1.6 | 0.00 | 0.00 | 0.00 | 21 | 1011.4 |
| 20260504140821 | 20 | 0 | 0.0 | 6.4 | 0.00 | 0.00 | 0.00 | 22 | 1011.1 |
| 20260504140311 | 20 | 45 | 0.0 | 6.4 | 0.00 | 0.00 | 0.00 | 21 | 1011.4 |
| 20260504130620 | 20 | 45 | 0.0 | 1.6 | 0.00 | 0.00 | 0.00 | 20 | 1011.6 |
| 20260504130109 | 19 | 0 | 0.0 | 1.6 | 0.00 | 0.00 | 0.00 | 21 | 1012.3 |
| 20260504100525 | 7 | 23 | 0.0 | 6.4 | 0.00 | 0.00 | 0.00 | 47 | 1010.1 |
| 20260504100246 | 8 | 315 | 3.2 | 11.3 | 0.00 | 0.00 | 0.00 | 46 | 1010.9 |
| 20260504081651 | 6 | 315 | 0.0 | 8.0 | 0.00 | 0.00 | 0.00 | 51 | 1010.2 |
| 20260504081142 | 6 | 270 | 0.0 | 9.7 | 0.00 | 0.00 | 0.00 | 50 | 1010.3 |
| 20260504080631 | 6 | 225 | 0.0 | 9.7 | 0.00 | 0.00 | 0.00 | 52 | 1010.2 |
| 20260504080120 | 5 | 45 | 0.0 | 9.7 | 0.00 | 0.00 | 0.00 | 54 | 1010.0 |
| 20260504045516 | 7 | 315 | 3.2 | 8.0 | 0.00 | 0.00 | 0.00 | 50 | 1010.9 |